Wetbulb
56.86 56.70 56.60 56.66 56.93 56.98 57.10 57.40 57.81 58.07 58.68 58.96 59.65 59.98 59.93 59.84 59.26 56.50 51.71 57.24 57.48 64.42 63.62 56.95 56.98 56.29 54.68 50.04 49.06 45.54 38.58 35.15 37.97 42.44 43.59 46.79 46.94 50.57 54.00 53.63 55.32 56.79 58.19 60.25 62.28
56.34 56.56 56.52 56.33 56.69 56.79 56.76 56.98 57.43 57.76 58.26 58.87 59.25 59.43 59.58 59.50 55.25 53.27 60.62 65.42 65.20 65.24 54.42 53.38 53.37 54.21 49.40 46.52 47.08 42.32 37.12 39.39 43.31 44.54 43.12 46.08 48.67 52.11 52.47 53.65 54.49 57.44 60.14 61.60 62.01
56.92 56.94 56.77 55.96 56.28 56.48 56.41 56.67 57.12 57.57 58.09 58.45 58.72 59.15 59.15 58.57 51.55 53.89 66.45 66.52 66.30 63.65 56.16 55.20 54.00 52.14 45.86 45.57 44.94 41.36 39.87 42.38 45.58 46.94 46.81 46.36 48.99 50.91 51.84 49.87 53.18 55.38 57.50 59.23 59.74
56.49 56.49 56.19 55.80 55.79 56.07 56.09 56.35 56.90 57.48 57.73 57.88 58.33 58.93 59.24 55.70 44.51 53.69 67.28 67.70 67.99 60.09 55.26 53.82 52.66 47.71 44.44 44.39 47.79 42.55 45.66 45.85 47.15 47.87 46.93 47.91 50.03 51.53 52.74 51.38 57.78 58.61 59.08 58.72 57.92
56.34 56.22 56.11 55.94 56.15 56.19 56.30 56.32 56.60 56.87 57.02 57.34 58.33 59.00 55.31 50.44 50.52 57.49 69.00 67.66 61.73 56.73 53.77 51.85 48.49 45.71 44.80 45.76 47.28 44.39 47.16 48.02 49.04 48.71 47.81 50.09 49.76 51.22 51.46 57.00 58.70 59.11 58.84 57.52 56.99
55.46 55.58 55.59 55.56 55.74 55.97 56.18 56.31 56.32 56.49 56.86 57.74 58.98 59.38 55.02 48.23 57.30 59.06 60.19 57.52 57.25 54.15 54.13 51.02 49.06 49.79 46.37 46.62 43.94 47.73 47.79 48.20 47.35 47.05 48.79 48.65 49.63 51.76 52.47 57.28 57.55 57.71 57.05 57.26 57.28
54.94 54.90 55.18 55.24 55.64 55.76 55.69 56.15 55.90 56.37 57.20 58.81 59.99 58.90 53.71 50.76 57.80 56.81 58.64 55.46 55.81 56.41 52.14 52.85 52.16 50.72 48.83 47.49 49.39 47.77 44.09 46.24 46.93 48.16 47.79 49.79 46.79 49.10 52.91 55.60 55.44 56.55 57.31 57.39 57.54
54.58 54.35 54.62 54.88 55.34 55.50 55.51 55.53 56.21 57.11 58.70 60.49 60.11 56.00 49.38 58.67 57.17 54.88 56.53 55.63 56.39 55.31 53.89 53.84 52.77 49.55 47.28 48.57 48.59 45.82 43.43 39.27 45.22 49.02 49.28 48.35 41.77 50.43 52.64 53.93 53.27 55.86 57.11 57.17 56.96
54.43 53.89 53.94 54.59 54.85 55.17 54.69 54.45 56.42 58.31 60.43 59.87 54.78 51.82 48.91 59.57 54.21 56.18 54.85 54.16 54.88 54.66 54.49 56.87 50.96 48.78 49.72 44.16 41.87 43.18 38.93 41.07 43.97 48.78 49.21 47.27 44.42 50.79 52.14 52.56 52.20 53.91 55.92 56.53 56.14
54.40 53.68 53.54 53.84 54.37 54.15 53.41 54.58 57.93 57.38 58.95 59.47 58.49 50.60 53.82 54.22 55.21 55.90 54.73 55.76 54.52 53.90 52.63 51.09 47.96 45.30 43.80 42.19 36.73 39.08 40.00 41.52 42.19 46.01 46.84 43.95 44.24 49.77 51.76 52.05 51.95 51.81 54.92 55.72 55.68
54.36 53.64 53.41 53.47 53.66 53.28 51.32 52.18 51.75 51.70 53.22 50.02 49.97 53.00 56.11 58.97 57.42 54.22 55.52 54.05 53.89 51.26 46.10 49.27 44.19 40.19 43.11 45.03 44.94 43.93 42.31 41.50 45.19 47.86 45.58 43.82 43.86 48.17 51.10 49.86 49.41 51.17 52.26 52.82 54.58
54.00 53.73 53.41 53.15 53.02 52.89 49.72 50.53 54.70 51.29 46.48 54.59 55.03 54.59 57.28 58.64 53.14 55.89 54.74 50.00 49.94 45.44 47.61 44.75 42.30 46.75 47.86 47.47 45.61 44.47 42.29 41.32 45.08 47.43 44.34 42.56 43.73 45.60 49.59 48.98 49.25 50.31 51.40 52.31 52.63
53.23 53.09 53.15 52.47 52.11 51.42 50.96 54.54 58.06 54.45 47.08 51.50 54.54 54.31 54.64 53.87 52.29 53.47 52.98 50.29 47.31 44.72 44.39 41.52 45.60 50.24 47.80 45.52 44.97 43.24 42.47 42.34 42.14 44.42 43.70 42.08 40.29 42.58 48.52 50.85 51.56 51.53 52.04 52.32 52.20
52.65 52.55 52.53 51.21 51.33 49.11 51.05 54.35 54.49 52.98 41.36 47.20 50.51 53.26 52.38 52.62 50.97 55.57 54.52 50.55 47.16 45.08 45.72 42.66 47.43 47.57 46.10 47.13 45.66 39.59 45.09 44.94 43.60 39.61 35.02 41.76 31.98 39.69 46.40 48.00 49.82 50.43 51.10 51.69 52.22
52.28 52.28 51.97 51.44 46.28 48.23 53.92 55.77 55.30 52.32 31.87 52.11 51.39 54.74 52.09 49.94 50.99 52.18 54.71 51.58 45.52 45.96 45.33 43.04 45.17 45.75 44.67 45.30 45.67 42.12 45.48 42.94 43.22 38.02 36.40 38.21 35.17 38.29 46.13 44.46 45.77 48.25 50.16 50.79 51.06
51.94 52.03 51.25 48.74 46.18 50.73 53.85 52.88 51.55 41.75 34.20 49.46 50.71 48.60 47.43 50.16 51.29 51.95 52.96 52.15 50.47 46.18 45.70 44.21 47.83 46.97 45.38 47.16 45.75 46.55 43.54 42.83 41.31 37.05 31.32 37.49 37.59 36.92 42.71 45.06 46.75 49.47 50.50 52.36 51.07
51.49 51.48 49.16 49.61 46.05 50.48 51.53 50.27 39.82 35.62 49.27 48.20 46.98 47.97 46.96 47.51 48.86 50.09 48.53 44.98 42.15 38.44 39.43 44.68 44.43 45.49 46.69 41.93 44.54 42.24 38.36 31.30 31.58 30.43 31.29 40.15 38.19 39.37 47.09 49.55 49.90 49.44 50.51 50.84 49.32
49.86 49.16 47.85 49.62 47.04 48.89 50.37 44.46 33.60 44.70 46.38 52.25 50.25 48.01 45.76 47.08 46.76 48.04 46.03 43.16 45.73 43.87 39.13 37.25 37.54 43.67 46.43 42.69 40.05 41.11 38.94 30.70 24.48 24.99 30.93 40.43 36.27 40.44 48.82 50.30 50.29 50.06 48.51 48.91 48.82
48.16 44.10 46.03 48.76 51.23 50.16 46.91 37.54 38.31 44.16 49.68 50.11 49.56 45.44 44.15 47.24 46.08 45.57 44.75 44.33 46.15 45.26 39.44 39.62 40.84 45.63 46.44 45.19 44.21 42.74 39.57 43.00 35.19 36.73 30.89 34.73 41.14 46.44 48.71 49.00 49.33 48.42 48.90 47.80 48.25
42.64 42.46 45.48 51.27 53.05 49.38 43.48 40.26 44.16 51.35 51.89 50.55 44.10 46.95 42.27 44.57 43.42 42.79 43.91 48.07 47.29 48.12 46.60 44.52 38.27 46.03 45.16 44.37 43.61 42.62 46.52 37.61 36.18 28.15 27.64 34.01 37.31 37.69 44.25 46.20 47.99 46.94 45.93 47.93 47.73
41.20 41.99 49.45 54.14 53.59 46.61 38.86 41.77 48.11 52.57 52.22 49.53 46.71 45.52 45.75 44.76 45.00 43.01 44.65 47.97 49.51 46.35 45.50 42.67 39.72 41.05 43.69 40.41 38.48 39.27 36.96 38.28 39.51 35.63 27.78 25.44 33.35 42.90 45.45 46.31 46.42 47.27 46.51 46.63 46.13
39.03 38.15 50.76 52.55 45.95 44.15 42.03 47.58 48.69 51.07 52.75 51.04 50.46 47.60 45.45 46.34 44.39 44.64 45.10 47.54 50.61 47.77 42.92 42.88 38.87 35.81 40.65 45.22 46.54 42.49 41.06 40.31 33.88 34.02 33.85 32.39 33.08 47.17 46.71 46.87 47.00 47.08 49.00 47.68 45.35
35.38 38.44 49.61 51.36 41.07 41.96 46.38 49.09 50.74 49.77 50.58 49.96 48.74 48.81 48.44 44.60 40.54 45.46 47.15 50.72 49.18 47.34 44.89 43.87 36.84 31.52 34.62 37.85 44.28 40.54 42.56 39.63 39.18 36.48 34.83 30.03 33.38 46.87 47.29 46.34 47.04 46.13 45.84 46.17 46.51
37.33 36.29 42.81 45.98 43.59 39.68 39.80 43.15 43.90 51.78 51.99 51.86 49.95 49.35 46.63 44.27 44.17 43.18 45.60 49.48 49.51 49.08 53.94 48.10 38.13 34.88 30.28 36.50 40.44 38.97 42.06 42.81 38.95 33.82 35.03 35.50 38.26 42.21 44.72 45.39 45.34 44.85 45.20 45.99 46.94
39.75 39.11 39.33 34.48 38.45 38.85 40.47 43.13 43.84 46.27 51.69 51.92 48.92 48.30 45.49 41.14 42.24 42.26 45.64 45.78 48.33 52.77 45.93 41.60 37.11 38.72 40.21 43.33 43.73 42.62 42.36 42.43 38.77 39.52 35.28 38.33 38.38 42.86 44.90 44.72 45.18 45.95 46.96 47.61 48.30
39.80 38.08 39.59 38.69 39.45 40.22 41.85 40.59 43.15 45.17 48.55 47.54 46.54 49.49 46.98 43.21 43.93 42.56 45.62 42.72 42.51 44.35 41.69 42.31 37.74 39.06 38.66 44.53 44.24 41.93 43.83 44.13 42.93 41.93 39.71 39.69 40.42 44.87 46.20 46.42 45.85 46.38 47.46 47.36 48.03
40.71 41.07 39.48 38.13 37.00 36.04 41.10 41.23 41.94 44.65 47.91 49.22 49.10 47.86 46.85 48.09 49.14 47.85 46.26 46.33 45.71 43.26 40.93 40.78 40.26 36.87 34.35 43.24 41.36 36.31 42.97 43.35 43.12 44.92 41.32 38.41 41.70 45.06 44.23 45.54 44.23 44.14 47.41 46.96 48.63
MSLP
1018.02 1017.58 1017.17 1016.81 1016.48 1016.13 1015.81 1015.51 1015.18 1014.88 1014.67 1014.48 1014.26 1013.93 1013.54 1013.04 1012.11 1012.10 1011.64 1010.28 1010.20 1010.15 1010.25 1010.06 1009.99 1010.28 1010.55 1010.60 1010.09 1010.49 1011.79 1012.15 1011.23 1009.81 1009.08 1007.75 1007.30 1007.59 1007.88 1007.94 1008.72 1009.66 1010.61 1012.12 1012.12
1018.15 1017.62 1017.13 1016.70 1016.34 1016.04 1015.72 1015.38 1015.04 1014.76 1014.56 1014.38 1014.17 1013.76 1013.50 1013.16 1012.54 1011.42 1009.66 1009.49 1009.78 1010.07 1010.11 1010.27 1010.34 1010.42 1010.64 1010.23 1010.00 1010.44 1011.40 1010.90 1010.05 1009.18 1008.78 1008.24 1007.82 1007.93 1008.60 1009.31 1010.02 1010.24 1011.80 1012.20 1011.77
1018.24 1017.70 1017.20 1016.68 1016.22 1015.89 1015.57 1015.22 1014.89 1014.61 1014.37 1014.18 1013.97 1013.65 1013.47 1013.22 1012.51 1010.47 1009.07 1009.30 1009.61 1009.88 1009.99 1010.20 1010.37 1010.47 1010.38 1009.94 1009.82 1009.85 1010.12 1009.53 1009.19 1008.61 1008.12 1008.48 1008.48 1008.65 1009.10 1010.37 1010.73 1011.30 1011.56 1011.94 1012.86
1018.37 1017.74 1017.15 1016.64 1016.16 1015.71 1015.33 1014.98 1014.67 1014.46 1014.29 1014.02 1013.74 1013.49 1013.31 1013.18 1011.95 1009.55 1009.02 1009.27 1009.52 1009.79 1009.86 1009.95 1009.98 1010.08 1009.92 1009.78 1009.14 1009.33 1008.86 1008.77 1008.68 1008.13 1008.13 1008.61 1009.02 1009.62 1009.72 1010.76 1010.93 1011.22 1011.34 1011.70 1012.43
1018.30 1017.73 1017.14 1016.48 1015.92 1015.40 1014.99 1014.66 1014.40 1014.19 1014.07 1013.86 1013.57 1013.37 1013.06 1012.59 1010.79 1008.80 1008.87 1009.18 1009.59 1009.62 1009.62 1009.77 1009.78 1009.72 1009.65 1009.34 1008.80 1008.63 1008.48 1008.18 1008.28 1007.96 1008.33 1008.35 1009.23 1009.75 1010.49 1010.73 1010.78 1011.12 1011.46 1012.13 1012.88
1018.30 1017.67 1016.99 1016.36 1015.73 1015.16 1014.67 1014.31 1014.05 1013.90 1013.78 1013.60 1013.40 1013.39 1012.98 1011.50 1008.79 1008.42 1008.71 1009.27 1009.33 1009.31 1009.17 1009.24 1009.25 1008.88 1009.24 1009.16 1008.91 1008.43 1008.32 1008.26 1008.12 1008.10 1008.13 1008.54 1009.58 1009.60 1010.76 1010.44 1010.84 1011.14 1011.85 1012.25 1012.71
1018.35 1017.71 1017.02 1016.28 1015.57 1014.93 1014.37 1013.93 1013.64 1013.54 1013.42 1013.26 1013.23 1013.06 1012.30 1010.01 1008.32 1008.34 1008.71 1008.76 1008.72 1008.90 1008.65 1008.48 1008.58 1008.81 1009.13 1009.18 1008.64 1008.54 1008.56 1008.61 1008.37 1008.16 1008.35 1008.47 1009.47 1009.90 1009.99 1010.08 1010.85 1011.40 1011.92 1012.36 1012.73
1018.39 1017.70 1017.01 1016.22 1015.42 1014.74 1014.01 1013.49 1013.22 1013.12 1013.03 1012.86 1012.95 1012.77 1011.15 1008.38 1008.27 1008.75 1008.82 1008.60 1008.30 1007.96 1008.06 1008.11 1008.24 1008.71 1009.23 1009.16 1008.98 1009.10 1009.41 1009.56 1008.48 1008.44 1008.40 1008.69 1009.76 1009.94 1009.86 1010.10 1010.94 1011.50 1011.99 1012.46 1012.86
1018.35 1017.68 1016.91 1016.16 1015.28 1014.46 1013.60 1012.99 1012.66 1012.64 1012.77 1012.84 1012.86 1012.29 1010.30 1008.12 1008.02 1007.61 1007.76 1007.93 1007.91 1007.78 1007.76 1007.95 1008.36 1009.05 1009.40 1009.94 1010.26 1010.24 1010.12 1009.78 1009.09 1008.46 1008.51 1009.24 1010.07 1009.82 1009.87 1010.27 1010.95 1011.42 1012.04 1012.52 1012.93
1018.46 1017.58 1016.74 1015.94 1015.14 1014.26 1013.20 1012.50 1012.09 1012.08 1012.50 1012.52 1012.14 1011.90 1009.66 1008.23 1007.52 1007.40 1007.26 1007.35 1007.74 1007.84 1008.22 1008.45 1009.18 1009.70 1010.23 1010.51 1010.93 1010.49 1010.14 1009.34 1008.75 1008.65 1008.72 1009.33 1009.82 1010.00 1010.11 1010.30 1010.88 1011.52 1012.07 1012.49 1012.78
1018.55 1017.71 1016.62 1015.57 1014.82 1014.10 1013.15 1012.20 1012.42 1012.19 1011.83 1011.29 1010.74 1009.93 1008.56 1007.67 1007.20 1007.32 1007.30 1007.45 1007.84 1008.35 1008.92 1009.00 1009.80 1010.10 1009.95 1009.97 1009.82 1009.81 1009.80 1009.48 1008.78 1008.70 1009.02 1009.50 1009.80 1010.14 1010.16 1010.70 1011.14 1011.70 1012.17 1012.49 1012.59
1018.74 1017.77 1016.77 1015.28 1014.20 1013.66 1013.58 1012.91 1011.53 1011.16 1010.68 1009.62 1009.20 1008.74 1008.07 1007.78 1007.72 1007.26 1007.23 1007.88 1008.23 1008.70 1009.10 1009.58 1009.54 1009.33 1009.12 1009.21 1009.35 1009.55 1009.61 1009.59 1009.32 1009.18 1009.68 1010.25 1010.46 1010.43 1010.55 1010.65 1010.96 1011.70 1012.26 1012.39 1012.34
1018.93 1018.02 1017.00 1015.58 1013.81 1013.66 1013.29 1011.77 1010.35 1010.48 1010.54 1008.37 1007.47 1007.46 1007.35 1007.29 1007.26 1007.16 1007.42 1007.86 1008.30 1008.71 1009.04 1009.31 1008.81 1008.46 1008.61 1008.93 1009.14 1009.84 1010.03 1010.24 1010.42 1010.38 1010.51 1010.85 1011.40 1011.29 1011.57 1011.37 1011.55 1012.10 1012.08 1012.02 1012.00
1018.85 1018.21 1017.50 1016.17 1013.66 1014.37 1012.57 1010.87 1010.52 1010.59 1010.59 1008.30 1006.75 1006.01 1006.52 1006.78 1007.00 1006.72 1007.15 1007.80 1008.38 1008.78 1008.81 1008.88 1008.35 1008.22 1008.41 1008.66 1009.10 1009.86 1010.20 1010.50 1010.85 1011.38 1011.77 1011.78 1012.92 1012.68 1012.99 1012.84 1012.55 1012.38 1012.40 1012.36 1012.18
1018.83 1018.05 1017.63 1017.42 1016.39 1014.90 1011.85 1010.88 1010.62 1010.55 1010.58 1007.10 1006.03 1004.84 1005.94 1006.66 1006.95 1007.06 1006.96 1007.51 1008.38 1009.04 1009.42 1009.36 1008.73 1008.40 1008.46 1008.84 1009.11 1009.93 1010.28 1011.06 1011.66 1012.58 1013.22 1013.14 1013.74 1013.68 1013.79 1013.68 1013.30 1012.86 1012.52 1012.40 1012.46
1018.53 1017.76 1017.52 1016.80 1016.40 1013.30 1012.26 1011.46 1011.09 1011.54 1009.55 1006.87 1005.65 1005.67 1006.51 1006.60 1006.98 1007.30 1007.38 1007.66 1008.21 1008.96 1009.24 1009.20 1008.68 1008.41 1008.48 1008.80 1009.22 1009.91 1010.93 1012.14 1013.15 1014.18 1014.84 1013.92 1014.29 1014.27 1013.97 1013.82 1013.60 1013.15 1012.94 1012.78 1012.46
1018.03 1016.88 1017.09 1016.22 1014.06 1012.23 1012.34 1012.03 1012.39 1011.11 1008.43 1006.90 1006.12 1006.05 1006.42 1006.83 1007.30 1007.44 1007.92 1008.41 1008.97 1009.61 1010.06 1009.36 1008.83 1008.42 1008.51 1009.14 1009.69 1010.57 1012.65 1014.38 1015.56 1016.28 1015.87 1014.48 1014.56 1014.24 1013.41 1013.12 1013.08 1013.08 1012.94 1012.63 1012.47
1017.20 1015.83 1014.27 1013.38 1012.52 1012.93 1012.98 1013.19 1012.54 1009.96 1008.42 1006.72 1006.42 1006.09 1006.56 1006.74 1007.16 1007.58 1008.14 1008.75 1008.94 1009.44 1010.19 1010.10 1009.46 1008.85 1008.56 1009.24 1010.10 1010.97 1012.84 1015.01 1016.57 1017.39 1016.74 1015.22 1014.97 1014.28 1013.48 1013.11 1012.90 1012.76 1012.67 1012.58 1012.35
1016.53 1014.82 1013.81 1011.30 1011.77 1012.67 1013.44 1013.33 1011.92 1009.97 1008.43 1007.63 1006.61 1006.69 1006.92 1006.86 1006.85 1007.31 1007.72 1008.16 1008.36 1008.86 1010.02 1010.18 1009.94 1009.06 1008.86 1009.17 1010.05 1011.16 1012.66 1013.91 1016.13 1017.66 1017.49 1016.34 1015.44 1014.37 1013.60 1013.07 1012.75 1012.57 1012.49 1012.52 1012.59
1017.37 1015.86 1013.37 1010.70 1011.20 1012.04 1012.98 1012.60 1011.10 1009.41 1008.52 1008.18 1008.03 1007.24 1007.09 1006.78 1007.04 1007.28 1007.30 1007.19 1007.92 1008.16 1008.38 1010.12 1010.37 1009.76 1009.49 1009.51 1010.00 1010.84 1012.24 1014.18 1016.31 1018.00 1018.26 1016.95 1015.69 1014.57 1013.86 1013.29 1012.76 1012.61 1012.72 1012.71 1012.75
1017.74 1016.23 1011.47 1010.72 1010.99 1012.28 1012.62 1011.97 1010.60 1009.45 1009.17 1008.72 1008.23 1007.92 1007.32 1006.89 1007.00 1007.12 1007.07 1006.79 1007.12 1008.05 1008.48 1009.82 1010.65 1010.85 1010.13 1010.35 1010.65 1011.41 1012.29 1013.97 1015.81 1017.24 1018.03 1017.51 1015.84 1013.48 1013.22 1012.86 1012.85 1012.75 1012.70 1012.75 1013.17
1019.04 1016.77 1011.46 1010.96 1012.20 1012.78 1012.72 1011.75 1010.71 1009.79 1009.32 1009.05 1008.23 1007.76 1006.86 1006.90 1007.10 1007.15 1006.92 1006.52 1006.79 1007.42 1009.14 1010.09 1011.52 1012.09 1011.48 1010.36 1010.41 1010.94 1011.88 1013.32 1015.48 1016.94 1017.24 1016.77 1014.89 1012.73 1012.67 1012.50 1012.51 1012.63 1012.70 1013.00 1013.02
1020.43 1017.59 1012.44 1012.01 1013.53 1013.91 1013.05 1012.19 1011.21 1010.25 1009.58 1008.65 1008.11 1007.56 1006.86 1006.96 1007.33 1007.14 1006.92 1006.69 1006.94 1008.12 1009.07 1010.20 1011.98 1012.83 1012.30 1011.58 1010.89 1011.19 1011.62 1012.54 1014.00 1015.29 1016.12 1016.51 1014.35 1012.90 1012.48 1012.73 1012.86 1013.09 1013.11 1013.14 1013.62
1020.75 1018.76 1015.64 1014.79 1015.30 1015.34 1014.76 1013.28 1011.97 1010.36 1009.77 1009.43 1008.41 1007.18 1007.21 1007.30 1007.41 1007.46 1007.39 1007.40 1007.65 1008.36 1009.17 1009.95 1012.26 1012.99 1013.00 1012.52 1012.25 1011.99 1011.90 1012.17 1013.24 1014.64 1014.85 1014.66 1013.66 1013.35 1012.96 1013.02 1013.19 1013.44 1013.48 1013.42 1013.78
1020.86 1019.91 1018.69 1017.73 1016.56 1016.21 1015.44 1014.09 1012.66 1011.21 1010.47 1010.06 1009.11 1009.24 1008.68 1008.38 1007.96 1007.98 1007.85 1008.42 1008.66 1009.15 1009.92 1010.76 1012.42 1012.86 1012.83 1012.62 1012.24 1012.00 1011.83 1011.88 1012.54 1012.99 1013.74 1013.28 1013.09 1012.85 1012.82 1012.93 1013.06 1013.13 1013.34 1013.80 1014.20
1020.93 1020.40 1019.84 1019.04 1017.90 1016.85 1015.62 1014.77 1013.58 1012.39 1011.49 1011.08 1011.16 1010.22 1009.29 1009.75 1009.45 1008.30 1008.01 1008.48 1009.12 1009.99 1010.52 1011.38 1012.70 1012.97 1013.05 1012.54 1012.26 1011.99 1011.70 1011.66 1011.73 1011.95 1012.13 1012.35 1012.82 1012.68 1012.84 1013.07 1013.40 1013.56 1013.97 1014.28 1014.46
1021.29 1020.72 1020.43 1019.58 1018.52 1017.69 1016.34 1015.65 1014.54 1013.68 1011.33 1010.60 1010.70 1010.94 1010.42 1010.10 1009.62 1008.90 1008.54 1008.47 1008.87 1009.90 1011.06 1011.79 1012.58 1013.53 1013.74 1013.00 1012.63 1012.08 1011.09 1011.23 1011.55 1011.81 1011.73 1012.36 1012.75 1013.10 1013.43 1013.49 1013.59 1013.94 1014.22 1014.77 1015.31
Wind_Speed
20 19 18 16 15 14 14 13 13 13 13 12 11 11 12 14 15 2 4 9 5 7 3 4 3 4 3 4 4 4 4 3 4 5 6 8 7 6 8 21 20 16 23 12 15
20 20 19 18 16 15 14 14 13 13 13 12 10 11 11 12 3 5 11 8 6 4 1 3 5 7 3 3 2 5 4 6 6 4 4 5 9 9 11 13 12 17 18 18 21
19 19 18 19 18 15 14 14 13 13 12 12 10 10 10 9 4 7 6 7 6 5 2 1 3 3 4 1 3 3 6 5 2 4 6 4 8 2 15 7 7 12 16 17 21
19 20 20 19 18 16 15 14 13 13 12 12 11 10 9 1 2 4 9 7 4 2 2 3 3 4 2 2 5 4 6 5 5 3 4 5 4 8 13 6 15 15 13 16 16
20 20 19 19 18 17 15 14 13 12 11 10 10 9 1 1 8 6 8 5 3 2 4 1 2 0 2 2 5 2 3 1 6 7 6 5 5 10 10 11 13 16 16 14 11
22 22 21 20 19 17 15 13 11 9 9 8 7 7 0 2 5 9 10 2 6 2 3 2 4 4 2 3 1 2 2 3 2 5 4 6 6 7 6 14 14 16 14 12 12
23 23 22 21 20 19 16 13 10 8 7 7 5 3 1 11 5 8 10 7 4 5 2 4 2 7 4 8 2 1 4 5 3 5 4 5 4 6 8 9 14 15 14 12 10
23 24 23 23 22 21 19 15 11 7 6 4 2 2 6 7 5 4 5 6 7 7 3 3 3 2 2 3 9 4 6 2 6 5 3 7 5 4 8 10 10 14 13 12 7
24 25 24 24 24 23 22 18 11 5 4 1 1 2 9 9 4 7 5 1 5 4 3 3 3 1 5 3 6 6 3 6 7 9 5 5 2 7 6 8 8 10 11 10 7
25 26 26 26 24 23 26 10 1 5 3 4 3 3 4 3 3 4 2 1 2 3 4 2 4 2 3 5 3 4 5 4 5 5 4 4 5 7 7 8 10 9 10 10 8
25 26 28 29 27 24 12 4 6 4 1 7 5 5 6 4 2 2 3 1 2 3 3 3 4 2 5 6 6 3 2 3 1 4 5 5 3 9 10 5 8 10 9 8 9
25 27 27 32 30 19 2 1 7 4 9 10 13 12 10 7 3 2 7 2 2 5 3 4 5 8 5 3 1 3 3 4 3 5 4 2 6 4 8 6 7 10 8 8 5
24 26 27 32 33 1 3 6 8 5 3 9 11 7 6 9 6 7 7 3 4 3 5 5 6 7 4 3 2 3 4 4 2 2 1 2 6 8 6 7 10 5 6 5 6
24 25 25 32 6 7 8 5 10 1 5 9 4 6 4 6 3 5 7 4 3 2 5 2 4 3 1 1 3 3 2 4 5 5 2 4 6 4 4 6 5 5 5 4 5
24 24 22 9 5 5 8 14 12 6 2 6 4 4 8 10 4 1 3 3 3 4 3 7 1 0 4 2 3 5 2 2 2 4 4 3 4 5 2 3 1 2 2 3 4
25 26 22 0 3 12 11 13 4 7 7 4 7 6 6 5 5 4 3 2 2 1 1 7 4 4 5 2 2 1 4 8 6 4 3 5 5 3 3 5 3 4 5 6 6
27 29 16 4 8 1 8 5 6 4 5 5 6 6 10 8 6 8 7 5 4 3 3 5 4 2 5 3 7 5 7 4 6 5 7 4 5 4 3 6 6 5 5 6 5
30 31 8 9 5 3 3 6 3 5 6 5 3 9 10 8 9 9 7 5 6 4 2 2 7 4 3 6 5 5 9 8 5 2 5 5 3 4 2 5 6 6 6 2 6
29 4 5 6 10 5 5 3 8 6 4 5 9 5 6 7 7 10 10 9 8 9 9 3 3 3 5 3 5 1 2 6 7 2 3 3 2 6 4 4 3 1 4 4 5
8 5 6 6 10 4 6 6 7 5 6 6 2 4 4 4 2 7 9 8 7 6 9 7 2 1 2 3 2 5 4 3 4 3 3 4 3 5 6 7 7 3 2 7 5
3 6 6 10 4 5 5 7 5 9 7 3 6 8 8 3 3 2 6 4 7 6 6 6 6 5 6 4 6 3 2 5 6 6 7 2 7 7 10 9 8 8 3 3 5
4 5 5 7 3 1 1 3 3 10 14 9 5 10 7 4 1 1 5 6 5 10 8 2 6 3 7 5 4 7 8 6 7 5 3 5 8 6 8 9 7 6 6 2 4
4 5 7 3 3 5 7 6 5 7 8 5 6 8 5 5 1 4 3 1 10 5 9 6 1 3 9 7 7 2 2 4 4 4 7 7 8 5 6 5 5 5 0 5 3
3 6 6 5 2 2 6 5 8 6 6 7 8 8 3 4 5 5 3 1 4 5 8 10 4 8 9 6 3 4 6 5 5 4 5 7 8 2 4 4 3 4 4 4 6
1 4 2 5 5 7 2 5 6 7 5 8 7 6 3 3 4 6 4 2 5 6 5 6 5 4 4 4 0 2 7 8 3 8 6 9 7 5 6 5 5 5 5 7 5
1 3 5 5 5 6 3 4 11 14 6 3 4 10 8 5 5 7 6 3 5 2 4 2 4 3 2 2 4 4 7 9 8 5 7 4 4 4 5 7 4 4 5 4 5
4 4 4 4 5 4 1 8 17 17 9 6 6 2 5 8 7 7 3 4 9 9 4 5 6 4 3 1 4 5 5 4 5 6 2 3 3 1 5 6 3 3 5 4 6
Wind_Direction
1 358 355 350 344 338 334 330 326 324 326 331 335 329 326 328 314 164 270 222 173 163 204 320 325 323 110 269 209 106 56 323 285 336 295 323 76 37 47 81 68 66 77 91 81
359 354 352 349 344 338 331 326 322 321 324 330 333 321 328 333 333 274 238 223 209 186 4 4 318 351 301 236 316 104 115 229 211 270 67 347 61 66 82 66 60 74 83 78 66
356 353 351 348 343 337 330 323 319 319 323 329 327 317 325 325 348 258 243 187 217 165 157 228 249 209 190 123 239 202 180 204 331 242 42 36 38 85 106 62 88 93 84 74 88
355 353 349 347 343 335 327 321 316 317 322 324 319 317 313 239 243 247 210 217 239 179 351 315 2 322 248 254 241 158 227 190 198 53 46 58 49 53 89 117 120 108 101 83 70
350 350 349 345 342 335 326 319 314 315 319 316 314 323 111 45 251 230 207 223 281 204 221 229 330 236 342 276 328 133 356 223 175 109 129 95 99 117 104 121 113 107 94 99 97
349 347 347 345 340 335 328 318 309 308 311 304 304 316 161 270 231 187 197 205 239 226 266 154 266 218 237 296 137 222 98 358 177 123 164 118 165 99 196 132 118 113 114 112 114
347 346 344 344 339 335 330 318 307 304 302 291 285 258 270 241 210 204 157 208 202 209 281 298 347 50 344 330 310 310 14 9 264 156 169 126 36 156 182 142 133 126 127 126 130
347 343 343 342 340 334 329 317 300 297 289 274 216 259 250 249 193 165 183 289 240 230 218 266 33 37 155 306 357 355 55 24 277 135 216 88 267 246 187 144 148 140 137 136 147
346 342 341 340 339 332 326 313 284 255 254 213 150 166 272 310 195 225 172 60 214 242 231 234 61 202 9 55 2 7 245 221 286 190 150 109 200 241 198 144 168 146 144 147 154
345 341 339 337 336 331 322 286 258 310 160 190 261 353 284 244 210 151 235 173 265 321 341 125 56 36 28 71 242 275 296 311 191 181 127 185 207 206 212 169 171 150 153 158 167
342 341 337 334 333 332 335 12 18 9 107 198 205 244 302 205 146 212 198 340 14 44 244 283 62 254 252 183 206 257 289 307 238 212 117 194 216 197 213 196 158 155 153 162 187
342 339 338 332 329 333 140 69 223 157 297 233 234 236 252 276 260 245 132 135 59 266 344 4 227 221 210 133 94 309 323 338 13 43 89 250 269 251 210 208 167 146 144 166 181
339 337 337 332 323 29 243 230 284 28 293 276 212 207 218 159 196 226 142 173 267 293 295 171 231 180 179 193 183 42 72 15 45 335 20 135 330 2 358 63 106 122 154 155 170
337 334 338 334 21 331 281 327 354 208 32 278 203 230 138 146 244 191 170 132 332 292 317 238 259 136 17 112 152 97 4 46 15 60 269 84 276 345 351 53 40 98 95 47 357
332 328 335 326 284 314 277 335 329 57 357 250 185 178 151 141 174 38 155 92 218 276 50 266 24 278 66 119 94 194 44 45 357 20 23 326 90 301 318 84 192 282 283 334 354
327 322 335 207 235 241 311 298 45 53 257 267 168 159 120 165 191 153 129 111 164 249 266 230 257 172 161 123 130 274 33 23 36 89 3 260 129 270 180 204 248 269 279 299 322
322 313 313 259 235 302 346 28 52 161 302 208 170 146 168 179 181 155 182 179 159 95 295 323 260 165 123 57 1 84 56 349 358 13 222 330 67 253 285 173 183 197 244 262 252
320 309 244 205 218 225 29 55 196 238 244 304 225 177 185 175 215 194 158 191 262 120 130 147 324 167 164 154 185 165 149 150 198 224 273 338 130 244 274 125 131 171 202 288 346
319 309 280 262 206 133 89 127 206 226 256 12 345 173 202 232 195 194 195 196 209 166 162 131 334 51 88 117 118 255 135 172 111 341 55 243 5 328 227 152 188 282 13 343 340
318 326 274 273 142 97 90 216 222 228 358 38 350 327 245 270 184 178 179 201 183 176 139 197 142 244 192 66 327 145 172 65 18 129 250 296 217 226 218 228 231 249 334 333 339
353 340 258 9 97 51 166 218 269 278 304 282 275 287 252 255 162 223 234 248 152 158 109 139 116 275 107 185 175 348 319 65 115 138 163 214 269 216 206 213 203 231 242 276 47
1 327 305 359 62 149 219 230 323 297 310 296 269 267 200 156 275 268 258 214 169 140 139 124 130 183 224 250 223 178 190 147 127 232 211 158 266 237 211 198 190 235 234 262 52
336 275 309 68 55 344 332 322 306 297 304 269 245 244 209 174 145 227 155 306 129 106 154 175 48 52 341 354 7 70 210 157 113 82 195 146 260 348 105 135 221 199 256 75 95
12 342 327 35 46 55 360 304 328 299 291 335 282 212 169 198 181 235 121 154 105 120 116 98 119 151 182 195 197 300 317 306 140 125 222 217 255 142 171 159 122 109 125 89 80
87 280 336 332 335 334 294 268 310 327 13 358 333 25 82 312 225 199 155 97 36 148 77 103 149 156 193 208 256 284 300 303 227 231 166 247 212 179 183 105 120 92 57 53 65
54 43 346 286 297 333 349 309 320 355 307 318 358 319 37 62 282 238 153 131 178 243 103 38 161 118 290 317 320 317 295 297 284 294 245 165 66 187 118 106 82 54 60 87 54
318 337 110 277 318 358 259 3 314 320 286 209 185 359 360 354 326 327 347 126 159 147 131 119 130 97 255 330 17 319 224 316 296 8 258 80 142 59 87 96 79 74 112 68 84